Terminal Aerodrome Forecast
Issued by NWS Cleveland, OH

Home | Current Version | Previous Version | Graphics & Text | Print | Product List | Glossary On
Versions: 1 2 3 4 5 6 7 8 9 10 11 12 13 14 15 16 17 18 19 20 21 22 23 24 25 26 27 28 29 30
000
FTUS41 KCLE 182000 AAA
TAFCLE
TAF AMD
KCLE 182052Z 1821/1924 01010KT P6SM SCT025 SCT250
     FM190200 05005KT P6SM SCT025
     FM191400 10005KT P6SM SCT040=

USA.gov is the U.S. government's official web portal to all federal, state and local government web resources and services.